Tracking 28052 objects as of 23-Sep-2023
HD Live streaming from Space Station
objects crossing your sky now

EKRAN 2 DEB

Track EKRAN 2 DEB now!


NORAD ID: 12996
Int'l Code: 1977-092J
Perigee: 35,763.6 km
Apogee: 35,954.9 km
Inclination: 6.9 °
Period: 1,439.4 minutes
Semi major axis: 42230 km
RCS: 0.3162 m2 (medium)
Launch date: September 20, 1977
Source: Commonwealth of Independent States (former USSR) (CIS)
Launch site: TYURATAM MISSILE AND SPACE COMPLEX (TTMTR)

Note: This is SATELLITE DEBRIS
Your satellite tracking list
Your tracking list is empty




NASA's NSSDC Master Catalog

Two Line Element Set (TLE):
1 12996U 77092J   23265.83651465  .00000143  00000-0  00000-0 0  9996
2 12996   6.8653 287.9813 0022657 251.8686 158.0698  1.00038581 74524
Source of the keplerian elements: AFSPC